EW6606 Weather Reports


Display with metric or nautical units.
time (UTC)temp
F
wind
direction
speed
MPH
gust
MPH
rain 1hr
in
rain 24hr
in
rain mn
in
humidity
%
barometer
mb
20260502160709 59 30 3.0 7.0 0.00 0.01 0.01 60 1017.4
20260502160208 59 40 4.0 5.0 0.00 0.01 0.01 62 1017.4
20260502152126 59 60 0.0 3.0 0.00 0.01 0.01 67 1017.0
20260502151623 58 32 2.0 4.0 0.00 0.01 0.01 68 1016.9
20260502151121 58 25 0.0 4.0 0.00 0.01 0.01 67 1016.6
20260502150618 58 35 4.0 5.0 0.00 0.01 0.01 67 1016.8
20260502150114 57 84 0.0 3.0 0.00 0.01 0.01 69 1016.7
20260502130503 52 58 1.0 3.0 0.00 0.01 0.01 78 1015.6
20260502123446 52 58 2.0 3.0 0.00 0.01 0.01 79 1015.3
20260502122943 52 53 2.0 3.0 0.00 0.01 0.01 79 1015.2
20260502122438 52 39 0.0 3.0 0.00 0.01 0.01 79 1015.0
20260502121937 52 34 2.0 4.0 0.00 0.01 0.01 79 1015.1
20260502121434 52 56 1.0 4.0 0.00 0.01 0.01 80 1015.2
20260502120931 52 46 2.0 3.0 0.00 0.01 0.01 80 1015.0
20260502120427 52 38 2.0 3.0 0.00 0.01 0.01 81 1014.9
20260502115925 52 61 2.0 4.0 0.00 0.01 0.01 81 1014.9
20260502115422 52 45 2.0 3.0 0.00 0.01 0.01 82 1014.5
20260502114918 52 43 2.0 3.0 0.00 0.01 0.01 81 1014.6
20260502114415 52 26 2.0 3.0 0.00 0.01 0.01 82 1014.5
20260502113912 52 41 2.0 3.0 0.00 0.01 0.01 81 1014.4
20260502113410 52 53 2.0 3.0 0.00 0.01 0.01 82 1014.1
20260502112908 52 62 1.0 3.0 0.00 0.01 0.01 82 1014.4
20260502112405 52 33 1.0 2.0 0.00 0.01 0.01 82 1014.2
20260502111902 52 52 2.0 2.0 0.00 0.01 0.01 82 1014.2
20260502111359 52 70 2.0 3.0 0.00 0.01 0.01 84 1014.1
20260502110857 52 32 1.0 2.0 0.00 0.01 0.01 85 1014.3
20260502110355 52 61 1.0 3.0 0.00 0.01 0.01 85 1014.4
20260502105852 52 45 2.0 3.0 0.00 0.01 0.01 85 1014.3
20260502105349 52 63 1.0 2.0 0.00 0.01 0.01 85 1014.4
20260502104847 52 41 0.0 2.0 0.00 0.01 0.01 85 1014.5
20260502104344 52 72 2.0 3.0 0.00 0.01 0.01 85 1014.2
20260502103840 52 41 2.0 3.0 0.00 0.01 0.01 86 1014.2
20260502103338 52 75 1.0 3.0 0.00 0.01 0.01 86 1014.1
20260502102835 52 119 0.0 3.0 0.00 0.01 0.01 87 1014.2
20260502102331 52 40 2.0 3.0 0.00 0.01 0.01 87 1013.6
20260502101829 52 68 0.0 2.0 0.00 0.01 0.01 87 1014.2
20260502101327 52 149 0.0 2.0 0.00 0.01 0.01 87 1014.3
20260502100826 52 57 2.0 2.0 0.00 0.01 0.01 87 1014.0
20260502100325 52 69 0.0 2.0 0.00 0.01 0.01 88 1014.2
20260502091258 53 32 0.0 2.0 0.00 0.01 0.01 87 1014.2
20260502090755 53 44 1.0 2.0 0.00 0.01 0.01 86 1014.1
20260502090252 53 37 2.0 3.0 0.02 0.01 0.01 86 1014.1
20260502071153 56 32 1.0 2.0 0.00 0.00 0.00 91 1014.4
20260502070651 55 62 0.0 2.0 0.00 0.00 0.00 91 1014.3
20260502070149 56 84 1.0 2.0 0.00 0.00 0.00 91 1014.4
20260502065647 56 63 1.0 2.0 0.00 0.00 0.00 91 1014.1
20260502065144 56 32 0.0 2.0 0.00 0.00 0.00 90 1014.3
20260502064643 56 66 0.0 1.0 0.00 0.00 0.00 90 1014.8
20260502064139 56 55 0.0 1.0 0.00 0.00 0.00 90 1015.0
20260502063637 56 129 0.0 1.0 0.00 0.00 0.00 90 1014.8
20260502063135 56 89 0.0 1.0 0.00 0.00 0.00 90 1015.0
20260502062631 56 89 0.0 2.0 0.00 0.00 0.00 90 1015.2
20260502062129 56 89 0.0 1.0 0.00 0.00 0.00 90 1015.1
20260502061627 56 55 0.0 1.0 0.00 0.00 0.00 90 1015.0
20260502061125 56 50 0.0 0.0 0.02 0.00 0.00 90 1014.9
20260502060624 56 50 0.0 1.0 0.02 0.00 0.00 90 1014.8
20260502060121 57 287 0.0 0.0 0.00 0.00 0.00 90 1014.9
20260502055619 56 147 0.0 1.0 0.00 0.00 0.00 90 1015.1
20260502055117 56 129 0.0 0.0 0.00 0.00 0.00 90 1014.9
20260502054616 56 104 0.0 0.0 0.00 0.00 0.00 90 1014.8
20260502054113 56 104 0.0 0.0 0.00 0.00 0.00 90 1014.4
20260502053610 57 96 1.0 2.0 0.00 0.00 0.00 90 1014.4
20260502053107 57 297 0.0 1.0 0.00 0.00 0.00 90 1014.6
20260502052605 56 117 0.0 1.0 0.00 0.00 0.00 90 1014.5
20260502052103 56 117 0.0 1.0 0.00 0.00 0.00 90 1014.5
20260502051601 57 25 0.0 0.0 0.00 0.00 0.00 90 1014.6
20260502051059 57 25 0.0 1.0 0.00 0.00 0.00 90 1014.6
20260502050554 57 62 0.0 0.0 0.00 0.00 0.00 90 1014.6
20260502050052 57 62 0.0 1.0 0.00 0.00 0.00 90 1014.3
20260502045548 57 89 0.0 1.0 0.02 0.04 0.04 90 1014.6
20260502045045 57 118 0.0 1.0 0.00 0.03 0.03 90 1014.5
20260502044542 57 117 0.0 1.0 0.00 0.03 0.03 90 1014.3
20260502044039 57 89 0.0 1.0 0.00 0.03 0.03 90 1014.6
20260502043536 57 104 0.0 1.0 0.00 0.03 0.03 90 1014.8
20260502043032 57 50 0.0 1.0 0.00 0.03 0.03 90 1014.4
20260502042527 57 58 0.0 1.0 0.00 0.03 0.03 90 1014.5
20260502042025 57 142 0.0 1.0 0.00 0.03 0.03 90 1014.6
20260502041523 57 160 0.0 1.0 0.00 0.03 0.03 90 1014.3
20260502041020 57 147 0.0 1.0 0.00 0.03 0.03 90 1014.1
20260502040516 57 35 0.0 1.0 0.00 0.03 0.03 90 1014.2
20260502040014 57 117 0.0 0.0 0.00 0.03 0.03 90 1014.5
20260502035509 56 209 0.0 0.0 0.00 0.03 0.03 90 1014.5
20260502035007 57 193 0.0 1.0 0.00 0.03 0.03 90 1014.6
20260502034505 57 154 0.0 2.0 0.00 0.03 0.03 90 1014.2
20260502034003 57 50 0.0 0.0 0.00 0.03 0.03 90 1014.3
20260502033501 57 50 0.0 0.0 0.00 0.03 0.03 90 1014.0
20260502032957 57 55 0.0 1.0 0.00 0.03 0.03 90 1014.1
20260502032454 57 77 0.0 2.0 0.00 0.03 0.03 89 1014.2
20260502031950 57 75 0.0 1.0 0.00 0.03 0.03 89 1014.3
20260502031449 57 64 0.0 2.0 0.00 0.03 0.03 89 1014.3
20260502030947 57 87 1.0 2.0 0.00 0.03 0.03 89 1014.3
20260502030445 57 78 0.0 1.0 0.00 0.03 0.03 89 1014.4
20260502025942 57 62 0.0 1.0 0.00 0.03 0.03 89 1014.8
20260502025439 57 89 0.0 0.0 0.00 0.03 0.03 89 1014.3
20260502024937 57 60 0.0 1.0 0.00 0.03 0.03 89 1015.0
20260502024435 57 66 1.0 1.0 0.00 0.03 0.03 89 1015.0
20260502023933 57 62 0.0 1.0 0.00 0.03 0.03 89 1015.0
20260502023430 57 75 0.0 0.0 0.00 0.03 0.03 89 1014.8
20260502022928 57 25 0.0 1.0 0.00 0.03 0.03 88 1014.8
20260502022424 57 25 0.0 1.0 0.00 0.03 0.03 88 1014.8
20260502021921 57 117 0.0 0.0 0.00 0.03 0.03 88 1014.6
20260502021418 57 114 0.0 2.0 0.00 0.03 0.03 88 1014.8
20260502020915 58 95 1.0 2.0 0.00 0.03 0.03 86 1014.8
20260502020413 58 107 2.0 2.0 0.00 0.03 0.03 86 1015.2
20260502015909 58 141 1.0 2.0 0.02 0.03 0.03 86 1015.3
20260502015407 58 117 0.0 1.0 0.02 0.03 0.03 86 1015.3
20260502014904 58 103 0.0 1.0 0.00 0.03 0.03 86 1015.2
20260502014401 58 117 0.0 0.0 0.00 0.03 0.03 85 1015.2
20260502013857 58 104 0.0 0.0 0.02 0.03 0.03 85 1015.3
20260502013352 58 117 0.0 1.0 0.02 0.03 0.03 85 1015.1
20260502012849 58 89 0.0 1.0 0.02 0.02 0.02 85 1015.1
20260502012347 58 89 0.0 2.0 0.02 0.02 0.02 84 1015.0
20260502011844 58 95 2.0 2.0 0.02 0.02 0.02 84 1015.1
20260502011340 58 220 0.0 2.0 0.05 0.02 0.02 83 1015.0
20260502010838 59 110 0.0 2.0 0.05 0.02 0.02 83 1015.1
20260502010334 59 122 0.0 1.0 0.02 0.01 0.01 83 1015.1
20260502005831 59 62 0.0 1.0 0.02 0.01 0.01 82 1015.1
20260502005329 59 147 0.0 1.0 0.00 0.00 0.00 82 1014.6
20260502004826 59 119 1.0 2.0 0.00 0.00 0.00 82 1014.5
20260502004322 59 125 1.0 2.0 0.00 0.00 0.00 82 1014.3
20260502003820 59 166 0.0 1.0 0.02 0.00 0.00 81 1014.1
20260502003317 59 50 0.0 1.0 0.02 0.00 0.00 81 1014.1
20260502002813 59 62 0.0 0.0 0.00 0.00 0.00 81 1014.1
20260502002311 59 104 0.0 1.0 0.00 0.00 0.00 81 1014.0
20260502001808 60 62 0.0 1.0 0.00 0.00 0.00 81 1014.2
20260502001306 60 129 0.0 1.0 0.00 0.00 0.00 81 1014.4
20260502000803 60 76 0.0 1.0 0.00 0.00 0.00 80 1014.1
20260502000302 60 49 0.0 2.0 0.00 0.00 0.00 80 1014.1
20260501235756 60 110 0.0 0.0 0.00 0.00 0.00 80 1014.0
20260501235252 60 81 0.0 1.0 0.00 0.00 0.00 80 1014.0
20260501234748 60 50 0.0 0.0 0.00 0.00 0.00 80 1014.0
20260501234245 60 50 0.0 1.0 0.00 0.00 0.00 80 1013.8
20260501233743 60 119 0.0 1.0 0.00 0.00 0.00 80 1014.0
20260501233241 61 104 0.0 1.0 0.00 0.00 0.00 80 1013.9
20260501232736 61 147 0.0 1.0 0.00 0.00 0.00 80 1013.9
20260501232233 61 57 0.0 1.0 0.00 0.00 0.00 80 1013.7
20260501231731 61 75 0.0 1.0 0.00 0.00 0.00 80 1013.8
20260501231229 61 44 0.0 1.0 0.00 0.00 0.00 79 1013.7
20260501230727 61 62 0.0 1.0 0.00 0.00 0.00 79 1013.8
20260501230226 61 66 0.0 1.0 0.00 0.00 0.00 78 1013.8
20260501225723 61 37 0.0 1.0 0.00 0.00 0.00 78 1013.7
20260501225220 62 37 0.0 2.0 0.00 0.00 0.00 78 1013.7
20260501224716 62 49 0.0 1.0 0.00 0.00 0.00 77 1013.8
20260501224214 62 142 0.0 1.0 0.00 0.00 0.00 77 1013.8
20260501223710 62 104 0.0 0.0 0.00 0.00 0.00 77 1013.8
20260501223206 62 129 0.0 1.0 0.00 0.00 0.00 76 1013.8
20260501222702 62 116 0.0 1.0 0.00 0.00 0.00 75 1013.6
20260501222200 62 89 0.0 1.0 0.00 0.00 0.00 74 1013.5
20260501221656 63 64 1.0 1.0 0.00 0.00 0.00 74 1013.6
20260501221153 63 75 0.0 1.0 0.00 0.00 0.00 74 1013.7
20260501220651 63 44 0.0 2.0 0.00 0.00 0.00 73 1013.9
20260501220148 63 89 0.0 1.0 0.00 0.00 0.00 73 1013.9
20260501215645 63 66 0.0 2.0 0.00 0.00 0.00 73 1013.8
20260501215140 63 63 0.0 1.0 0.00 0.00 0.00 71 1013.6
20260501214635 63 49 0.0 2.0 0.00 0.00 0.00 71 1013.6
20260501214131 63 62 0.0 1.0 0.00 0.00 0.00 70 1013.6
20260501213628 63 79 0.0 2.0 0.00 0.00 0.00 70 1013.5
20260501213124 63 31 2.0 2.0 0.00 0.00 0.00 70 1013.2
20260501212621 63 101 0.0 2.0 0.00 0.00 0.00 70 1013.1
20260501212118 63 122 0.0 2.0 0.00 0.00 0.00 69 1013.2
20260501211614 64 150 0.0 2.0 0.00 0.00 0.00 70 1013.3
20260501211112 64 66 0.0 1.0 0.00 0.00 0.00 70 1013.0
20260501210609 64 47 1.0 2.0 0.00 0.00 0.00 69 1013.2
20260501210105 63 42 1.0 2.0 0.00 0.00 0.00 69 1013.1
20260501205602 63 37 0.0 1.0 0.00 0.00 0.00 68 1013.1
20260501205059 63 66 0.0 2.0 0.00 0.00 0.00 69 1013.4
20260501204555 63 50 1.0 3.0 0.00 0.00 0.00 70 1013.5
20260501204051 63 89 0.0 1.0 0.00 0.00 0.00 69 1013.6
20260501203548 63 104 0.0 3.0 0.00 0.00 0.00 67 1014.0
20260501203046 63 64 0.0 3.0 0.00 0.00 0.00 67 1014.1
20260501202543 63 80 1.0 3.0 0.00 0.00 0.00 69 1014.2
20260501202039 64 46 1.0 2.0 0.00 0.00 0.00 69 1014.5
20260501201537 64 34 1.0 2.0 0.00 0.00 0.00 68 1014.5
20260501201033 64 24 2.0 3.0 0.00 0.00 0.00 70 1014.8
20260501200530 64 73 0.0 2.0 0.00 0.00 0.00 69 1014.6
20260501200027 64 26 2.0 3.0 0.00 0.00 0.00 69 1014.8
20260501195525 64 101 0.0 3.0 0.00 0.00 0.00 70 1014.8
20260501195020 64 49 1.0 3.0 0.00 0.00 0.00 71 1015.1
20260501194516 64 61 2.0 3.0 0.00 0.00 0.00 71 1015.2
20260501194012 64 45 2.0 2.0 0.00 0.00 0.00 74 1015.5
20260501193510 64 234 3.0 3.0 0.00 0.00 0.00 74 1015.5
20260501193008 64 91 1.0 2.0 0.00 0.00 0.00 75 1015.7
20260501192504 63 181 1.0 7.0 0.00 0.00 0.00 75 1015.8
20260501192003 63 287 0.0 3.0 0.00 0.00 0.00 76 1015.9
20260501191459 62 124 0.0 6.0 0.00 0.00 0.00 76 1015.9
20260501190956 62 287 4.0 4.0 0.00 0.00 0.00 77 1015.9
20260501190451 62 75 0.0 2.0 0.00 0.00 0.00 77 1015.8
20260501185947 62 142 0.0 3.0 0.00 0.00 0.00 77 1015.7
20260501185443 62 309 0.0 2.0 0.00 0.00 0.00 77 1015.7
20260501184939 62 269 0.0 2.0 0.00 0.00 0.00 77 1015.8
20260501184436 62 66 0.0 1.0 0.00 0.00 0.00 77 1015.7
20260501183931 62 258 1.0 3.0 0.00 0.00 0.00 77 1015.6
20260501183428 62 36 1.0 2.0 0.00 0.00 0.00 77 1015.7
20260501182924 61 76 0.0 1.0 0.00 0.00 0.00 77 1015.5
20260501182421 61 117 0.0 2.0 0.00 0.00 0.00 77 1015.4
20260501181918 61 89 0.0 2.0 0.00 0.00 0.00 77 1015.3
20260501181415 61 110 0.0 3.0 0.00 0.00 0.00 77 1015.1
20260501180912 61 46 2.0 2.0 0.00 0.00 0.00 77 1015.3
20260501180409 61 89 0.0 2.0 0.00 0.00 0.00 78 1015.3
20260501175906 61 199 1.0 3.0 0.00 0.00 0.00 79 1015.3
20260501175403 61 31 1.0 2.0 0.00 0.00 0.00 80 1015.5
20260501174859 61 46 1.0 3.0 0.00 0.00 0.00 80 1015.5
20260501174357 60 28 2.0 3.0 0.00 0.00 0.00 80 1015.7
20260501173854 60 49 1.0 3.0 0.00 0.00 0.00 80 1015.7
20260501173352 60 44 0.0 3.0 0.00 0.00 0.00 81 1015.8
20260501172847 59 41 1.0 3.0 0.00 0.00 0.00 82 1015.9
20260501172342 59 75 0.0 4.0 0.00 0.00 0.00 81 1016.1
20260501171838 59 51 1.0 4.0 0.00 0.00 0.00 82 1016.2
20260501171335 59 53 1.0 3.0 0.00 0.00 0.00 82 1016.3
20260501170826 59 55 1.0 2.0 0.00 0.00 0.00 81 1016.4
20260501170323 59 166 0.0 1.0 0.00 0.00 0.00 82 1016.4
20260501165820 59 116 0.0 2.0 0.00 0.00 0.00 82 1016.3
20260501165318 58 50 0.0 2.0 0.00 0.00 0.00 82 1016.4
20260501164816 58 150 0.0 3.0 0.00 0.00 0.00 82 1016.3
20260501164314 58 63 1.0 2.0 0.00 0.00 0.00 82 1016.4
20260501163809 58 65 1.0 2.0 0.00 0.00 0.00 82 1016.4
20260501163306 58 60 0.0 2.0 0.00 0.00 0.00 82 1016.5
20260501162803 58 58 1.0 2.0 0.00 0.00 0.00 82 1016.4
20260501162259 58 57 1.0 2.0 0.00 0.00 0.00 82 1016.2
20260501161756 58 36 1.0 2.0 0.00 0.00 0.00 82 1016.1
20260501161253 58 50 0.0 2.0 0.00 0.00 0.00 82 1016.3